Last 30 Days

OV-Siberia 8700'

Daily Data | America/Los_Angeles
as of 1/23/22 4:19 AM PST
Date Daily Max Temp (°F) Time of Max Temp Daily Min Temp (°F) Time of Min Temp Wind Spd (mph) Daily Max Wind (mph) Time of Max Wind Max Wind Dir (°) Wet Bulb (°F) WetB Hrs <28F (hrs)
1/22/22 27.4 1514 14.3 0659 54.3 92.0 0248 ENE | 73 17.9 24.0
1/21/22 32.3 0132 16.1 0830 47.0 93.6 1928 NE | 56 18.5 24.0
1/20/22 44.7 1042 26.6 0016 17.5 41.7 0042 E | 92 29.6 8.0
1/19/22 30.7 1406 23.3 0734 22.6 43.0 2334 E | 98 23.7 24.0
1/18/22 39.0 1146 27.3 0056 4.8 21.2 0121 WNW | 296 27.0 14.8
1/17/22 35.8 1327 28.4 1903 18.6 31.9 1128 SW | 228 26.8 16.1
1/16/22 43.8 0052 32.6 2356 16.9 41.0 1258 ESE | 113 27.5 16.0
1/15/22 47.0 1645 27.9 0127 5.4 24.1 0224 SSE | 155 26.9 20.4
1/14/22 36.6 0031 21.7 0524 32.9 66.6 1059 ENE | 74 23.5 24.0
1/13/22 37.7 0031 32.0 1659 36.8 82.3 1047 SW | 224 25.5 24.0
1/12/22 51.3 1108 34.8 2359 14.0 51.0 2246 SSW | 206 32.9 2.8
1/11/22 45.2 1147 33.4 0001 13.1 29.7 1952 E | 100 29.5 7.7
1/10/22 39.2 1235 25.0 0431 17.4 51.5 0027 SE | 127 25.0 18.2
1/9/22 36.5 1324 20.9 0001 17.7 45.9 0528 ESE | 115 22.2 24.0
1/8/22 24.9 1416 15.7 0141 19.1 49.5 1913 E | 92 18.9 24.0
1/7/22 28.8 0007 19.2 2359 39.7 96.8 0233 W | 261 24.1 22.7
1/6/22 36.4 1406 28.7 2319 34.2 78.6 2246 SSW | 193 32.3 0.0
1/5/22 36.7 1949 25.2 0149 18.9 54.4 0019 W | 265 30.7 4.8
1/4/22 27.9 2121 25.0 1735 48.0 127.6 0014 WSW | 257 25.8 24.0
1/3/22 25.6 2325 16.8 0306 64.6 134.0 2105 WSW | 248 17.4 24.0
1/2/22 23.5 1424 17.4 0856 46.6 97.8 2344 SW | 228 17.3 24.0
1/1/22 25.8 1844 3.9 0126 17.1 39.9 0547 ENE | 59 14.7 24.0
12/31/21 23.3 1240 5.4 2358 24.1 68.8 0322 WSW | 237 14.4 24.0
12/30/21 23.7 1153 15.7 0609 28.9 79.6 1254 SW | 220 18.5 24.0
12/29/21 21.3 1251 15.1 0001 28.2 75.9 0924 SE | 137 17.4 24.0
12/28/21 16.8 1323 9.3 0750 31.6 73.3 0238 SSW | 210 12.7 24.0
12/27/21 13.5 0413 9.5 2012 59.0 128.2 0431 SSW | 202 11.8 24.0
12/26/21 11.9 2358 6.5 0755 60.1 121.3 0221 WSW | 244 9.3 24.0
12/25/21 18.5 1456 11.5 2345 65.3 120.6 1114 SW | 225 15.9 24.0
12/24/21 23.4 0621 15.2 1558 55.3 111.5 1105 WSW | 250 19.8 24.0
Max 51.3 - 34.8 - 65.3 134.0 - - 32.9 24.0
Avg - - - - 32.0 - - - 21.9 -
Min 11.9 - 3.9 - 4.8 21.2 - - 9.3 0.0